Salem, OR

1:01 AM PST on January 23, 2018 (GMT -0800)
McNary

Weather History for KSLE - August, 2014

Change the Weather History Date:

Friday, August 1, 2014

  Actual Average Record
Temperature  
Mean Temperature 79 °F 69 °F  
Max Temperature 93 °F 84 °F 101 °F (2017)
Min Temperature 64 °F 54 °F 37 °F (1920)
Degree Days  
Heating Degree Days 0 0  
Month to date heating degree days 0 0  
Since 1 June heating degree days 69 160  
Since 1 July heating degree days 3 30  
Cooling Degree Days 14 4  
Month to date cooling degree days 14 4  
Year to date cooling degree days 291 150  
Since 1 June cooling degree days 275 141  
Growing Degree Days 28 (Base 50)    
Moisture  
Dew Point 56 °F    
Average Humidity 56    
Maximum Humidity 81    
Minimum Humidity 30    
Precipitation  
Precipitation 0.15 in 0.01 in 0.60 in (1896)
Month to date precipitation 0.15 0.01  
Year to date precipitation 22.62 21.56  
Sea Level Pressure  
Sea Level Pressure 29.95 in    
Wind  
Wind Speed 6 mph (NW)    
Max Wind Speed 22 mph    
Max Gust Speed 29 mph    
Visibility 10 miles    
Events Rain , Thunderstorm    
T = Trace of Precipitation, MM = Missing Value Source: NWS Daily Summary

Daily Weather History Graph

Daily Weather History Graph

Search for Another Location

Airport or City:

Trip Planner

Search our weather history database for the weather conditions in past years. The results will help you decide how hot, cold, wet, or windy it might be!

Date:

Astronomy

Aug. 01, 2014 Rise Set
Actual Time 5:57 AM PDT 8:38 PM PDT
Civil Twilight 5:24 AM PDT 9:11 PM PDT
Nautical Twilight 4:41 AM PDT 9:53 PM PDT
Astronomical Twilight 3:52 AM PDT 10:42 PM PDT
Moon 11:43 AM PDT (8/1) 11:08 PM PDT (8/1)
Length of Visible Light 15h 47m
Length of Day
14h 40m
Waxing Crescent, 28% of the Moon is Illuminated
Aug 1
Waxing Crescent
Aug 3
First Quarter
Aug 10
Full
Aug 17
Last Quarter
Aug 25
New

Hourly Weather History & Observations

Time (PDT) Temp. Heat Index Dew Point Humidity Pressure Visibility Wind Dir Wind Speed Gust Speed Precip Events Conditions
12:03 AM 75.0 °F - 52.0 °F 44% 29.98 in 10.0 mi WNW 6.9 mph - N/A Thunderstorm Clear
12:12 AM 75.0 °F - 51.1 °F 43% 29.98 in 10.0 mi NW 4.6 mph - N/A   Clear
12:21 AM 75.0 °F - 52.0 °F 44% 29.98 in 10.0 mi NW 5.8 mph - N/A Thunderstorm Clear
12:36 AM 73.9 °F - 53.1 °F 48% 29.98 in 10.0 mi ENE 3.5 mph - N/A   Partly Cloudy
12:48 AM 72.0 °F - 57.0 °F 59% 29.99 in 10.0 mi Calm Calm - 0.00 in Rain , Thunderstorm Light Rain
1:12 AM 71.1 °F - 57.9 °F 63% 30.00 in 5.0 mi Calm Calm - 0.00 in Rain Rain
1:56 AM 68.0 °F - 60.1 °F 76% 29.99 in 10.0 mi NE 6.9 mph - 0.06 in Rain Light Rain
3:03 AM 69.1 °F - 57.9 °F 68% 30.00 in 10.0 mi SSW 12.7 mph 16.1 mph 0.00 in Rain Light Rain
3:39 AM 66.9 °F - 60.1 °F 79% 29.98 in 10.0 mi SW 3.5 mph - 0.00 in Thunderstorm Scattered Clouds
3:51 AM 64.4 °F - 60.8 °F 88% 29.99 in 4.0 mi NW 4.6 mph - 0.05 in Rain , Thunderstorm Thunderstorms and Rain
3:56 AM 66.0 °F - 59.0 °F 78% 29.99 in 10.0 mi Variable 5.8 mph - 0.06 in Rain , Thunderstorm Light Thunderstorms and Rain
4:12 AM 66.0 °F - 57.9 °F 75% 29.98 in 10.0 mi NNW 6.9 mph - 0.00 in   Partly Cloudy
5:56 AM 64.9 °F - 57.9 °F 78% 29.97 in 10.0 mi NNW 6.9 mph - 0.00 in Rain Light Rain
6:56 AM 64.0 °F - 59.0 °F 84% 29.99 in 10.0 mi SSW 4.6 mph - 0.00 in   Clear
7:56 AM 66.9 °F - 59.0 °F 76% 29.99 in 10.0 mi North 3.5 mph - N/A   Partly Cloudy
8:56 AM 70.0 °F - 57.9 °F 65% 29.99 in 10.0 mi South 3.5 mph - N/A   Clear
12:56 PM 84.0 °F 82.9 °F 55.0 °F 37% 29.95 in 10.0 mi North 6.9 mph - N/A   Clear
2:56 PM 88.0 °F 86.1 °F 55.0 °F 32% 29.92 in 10.0 mi NNE 6.9 mph - N/A   Clear
4:56 PM 91.0 °F 89.2 °F 55.9 °F 30% 29.88 in 10.0 mi NNE 8.1 mph - N/A   Clear
5:56 PM 93.0 °F 91.7 °F 57.0 °F 30% 29.86 in 10.0 mi North 6.9 mph - N/A   Clear
6:56 PM 90.0 °F 88.8 °F 57.9 °F 34% 29.87 in 10.0 mi NW 11.5 mph - N/A   Clear
7:56 PM 84.0 °F 83.5 °F 57.9 °F 41% 29.89 in 10.0 mi NNW 8.1 mph - N/A   Clear
8:56 PM 79.0 °F - 57.0 °F 47% 29.91 in 10.0 mi West 8.1 mph - N/A   Clear
9:56 PM 75.9 °F - 55.0 °F 48% 29.92 in 10.0 mi West 5.8 mph - N/A   Clear
11:56 PM 72.0 °F - 53.1 °F 51% 29.93 in 10.0 mi West 4.6 mph - N/A   Clear